<?xml version="1.0" encoding="UTF-8" standalone="no" ?>
<gpx xmlns="http://www.topografix.com/GPX/1/1" xmlns:xsi="http://www.w3.org/2001/XMLSchema-instance" xsi:schemaLocation="http://www.topografix.com/GPX/1/1 http://www.topografix.com/GPX/1/1/gpx.xsd" version="1.1" creator="VisuGPX - https://www.visugpx.com">
  <metadata>
    <name>Venelles </name>
    <desc><![CDATA[venelles ]]></desc>
  </metadata>
  <trk>
    <name><![CDATA[Venelles _1]]></name>
    <trkseg>
      <trkpt lat="43.59611" lon="5.49238">
        <ele>395.58984375</ele>
        <time>2014-03-23T18:41:21Z</time>
      </trkpt>
      <trkpt lat="43.59614" lon="5.49177">
        <ele>393.03515625</ele>
        <time>2014-03-23T18:41:21Z</time>
      </trkpt>
      <trkpt lat="43.59684" lon="5.49167">
        <ele>395.15234375</ele>
        <time>2014-03-23T18:41:21Z</time>
      </trkpt>
      <trkpt lat="43.59728" lon="5.49177">
        <ele>390.5625</ele>
        <time>2014-03-23T18:41:21Z</time>
      </trkpt>
      <trkpt lat="43.59841" lon="5.49398">
        <ele>380.23828125</ele>
        <time>2014-03-23T18:41:21Z</time>
      </trkpt>
      <trkpt lat="43.5975" lon="5.49899">
        <ele>393.40625</ele>
        <time>2014-03-23T18:41:21Z</time>
      </trkpt>
      <trkpt lat="43.59773" lon="5.50099">
        <ele>404.6640625</ele>
        <time>2014-03-23T18:41:21Z</time>
      </trkpt>
      <trkpt lat="43.59822" lon="5.50207">
        <ele>415.67578125</ele>
        <time>2014-03-23T18:41:21Z</time>
      </trkpt>
      <trkpt lat="43.60001" lon="5.50164">
        <ele>414.97265625</ele>
        <time>2014-03-23T18:41:21Z</time>
      </trkpt>
      <trkpt lat="43.60093" lon="5.50099">
        <ele>414.375</ele>
        <time>2014-03-23T18:41:21Z</time>
      </trkpt>
      <trkpt lat="43.60236" lon="5.50086">
        <ele>422.12890625</ele>
        <time>2014-03-23T18:41:21Z</time>
      </trkpt>
      <trkpt lat="43.60304" lon="5.50053">
        <ele>418.12890625</ele>
        <time>2014-03-23T18:41:21Z</time>
      </trkpt>
      <trkpt lat="43.60333" lon="5.50079">
        <ele>409.37109375</ele>
        <time>2014-03-23T18:41:21Z</time>
      </trkpt>
      <trkpt lat="43.60268" lon="5.50304">
        <ele>391.25390625</ele>
        <time>2014-03-23T18:41:21Z</time>
      </trkpt>
      <trkpt lat="43.60217" lon="5.50314">
        <ele>401.6015625</ele>
        <time>2014-03-23T18:41:21Z</time>
      </trkpt>
      <trkpt lat="43.6018" lon="5.50262">
        <ele>411.1015625</ele>
        <time>2014-03-23T18:41:21Z</time>
      </trkpt>
      <trkpt lat="43.60153" lon="5.50223">
        <ele>414.46875</ele>
        <time>2014-03-23T18:41:21Z</time>
      </trkpt>
      <trkpt lat="43.60145" lon="5.50216">
        <ele>414.5703125</ele>
        <time>2014-03-23T18:41:21Z</time>
      </trkpt>
      <trkpt lat="43.59984" lon="5.50282">
        <ele>408.4609375</ele>
        <time>2014-03-23T18:41:21Z</time>
      </trkpt>
      <trkpt lat="43.60057" lon="5.50521">
        <ele>393.09375</ele>
        <time>2014-03-23T18:41:21Z</time>
      </trkpt>
      <trkpt lat="43.60055" lon="5.50603">
        <ele>390.73046875</ele>
        <time>2014-03-23T18:41:21Z</time>
      </trkpt>
      <trkpt lat="43.60033" lon="5.50653">
        <ele>388.11328125</ele>
        <time>2014-03-23T18:41:21Z</time>
      </trkpt>
      <trkpt lat="43.59967" lon="5.507">
        <ele>385.35546875</ele>
        <time>2014-03-23T18:41:21Z</time>
      </trkpt>
      <trkpt lat="43.5991" lon="5.50787">
        <ele>389.68359375</ele>
        <time>2014-03-23T18:41:21Z</time>
      </trkpt>
      <trkpt lat="43.59913" lon="5.50863">
        <ele>390.75</ele>
        <time>2014-03-23T18:41:21Z</time>
      </trkpt>
      <trkpt lat="43.59945" lon="5.50887">
        <ele>392.48828125</ele>
        <time>2014-03-23T18:41:21Z</time>
      </trkpt>
      <trkpt lat="43.59998" lon="5.50914">
        <ele>393.27734375</ele>
        <time>2014-03-23T18:41:21Z</time>
      </trkpt>
      <trkpt lat="43.6" lon="5.51055">
        <ele>392.34765625</ele>
        <time>2014-03-23T18:41:21Z</time>
      </trkpt>
      <trkpt lat="43.60012" lon="5.5114">
        <ele>389.87890625</ele>
        <time>2014-03-23T18:41:21Z</time>
      </trkpt>
      <trkpt lat="43.60073" lon="5.51183">
        <ele>381.76171875</ele>
        <time>2014-03-23T18:41:21Z</time>
      </trkpt>
      <trkpt lat="43.60074" lon="5.51248">
        <ele>364.59375</ele>
        <time>2014-03-23T18:41:21Z</time>
      </trkpt>
      <trkpt lat="43.59977" lon="5.51256">
        <ele>372.9453125</ele>
        <time>2014-03-23T18:41:21Z</time>
      </trkpt>
      <trkpt lat="43.59906" lon="5.51422">
        <ele>355.31640625</ele>
        <time>2014-03-23T18:41:21Z</time>
      </trkpt>
      <trkpt lat="43.59733" lon="5.51579">
        <ele>350.6796875</ele>
        <time>2014-03-23T18:41:21Z</time>
      </trkpt>
      <trkpt lat="43.59727" lon="5.51589">
        <ele>348.89453125</ele>
        <time>2014-03-23T18:41:21Z</time>
      </trkpt>
      <trkpt lat="43.59777" lon="5.51629">
        <ele>325.296875</ele>
        <time>2014-03-23T18:41:21Z</time>
      </trkpt>
      <trkpt lat="43.59804" lon="5.51694">
        <ele>306.3671875</ele>
        <time>2014-03-23T18:41:21Z</time>
      </trkpt>
      <trkpt lat="43.59789" lon="5.51747">
        <ele>301.98828125</ele>
        <time>2014-03-23T18:41:21Z</time>
      </trkpt>
      <trkpt lat="43.59656" lon="5.51731">
        <ele>311.296875</ele>
        <time>2014-03-23T18:41:21Z</time>
      </trkpt>
      <trkpt lat="43.59562" lon="5.51686">
        <ele>311.02734375</ele>
        <time>2014-03-23T18:41:21Z</time>
      </trkpt>
      <trkpt lat="43.59553" lon="5.516">
        <ele>324.1015625</ele>
        <time>2014-03-23T18:41:21Z</time>
      </trkpt>
      <trkpt lat="43.59415" lon="5.51517">
        <ele>314.8125</ele>
        <time>2014-03-23T18:41:21Z</time>
      </trkpt>
      <trkpt lat="43.59383" lon="5.51428">
        <ele>327.109375</ele>
        <time>2014-03-23T18:41:21Z</time>
      </trkpt>
      <trkpt lat="43.5933" lon="5.5138">
        <ele>330.89453125</ele>
        <time>2014-03-23T18:41:21Z</time>
      </trkpt>
      <trkpt lat="43.59394" lon="5.51352">
        <ele>336.90625</ele>
        <time>2014-03-23T18:41:21Z</time>
      </trkpt>
      <trkpt lat="43.59428" lon="5.51373">
        <ele>338.90234375</ele>
        <time>2014-03-23T18:41:21Z</time>
      </trkpt>
      <trkpt lat="43.59502" lon="5.51357">
        <ele>345.37109375</ele>
        <time>2014-03-23T18:41:21Z</time>
      </trkpt>
      <trkpt lat="43.59556" lon="5.51353">
        <ele>345.890625</ele>
        <time>2014-03-23T18:41:21Z</time>
      </trkpt>
      <trkpt lat="43.59617" lon="5.51289">
        <ele>351.94140625</ele>
        <time>2014-03-23T18:41:21Z</time>
      </trkpt>
      <trkpt lat="43.59674" lon="5.5115">
        <ele>367.01953125</ele>
        <time>2014-03-23T18:41:21Z</time>
      </trkpt>
      <trkpt lat="43.5986" lon="5.50876">
        <ele>389.04296875</ele>
        <time>2014-03-23T18:41:21Z</time>
      </trkpt>
      <trkpt lat="43.59874" lon="5.50819">
        <ele>390.87890625</ele>
        <time>2014-03-23T18:41:21Z</time>
      </trkpt>
      <trkpt lat="43.59824" lon="5.50631">
        <ele>398.0078125</ele>
        <time>2014-03-23T18:41:21Z</time>
      </trkpt>
      <trkpt lat="43.59637" lon="5.50599">
        <ele>396.171875</ele>
        <time>2014-03-23T18:41:21Z</time>
      </trkpt>
      <trkpt lat="43.59678" lon="5.50546">
        <ele>404.1328125</ele>
        <time>2014-03-23T18:41:21Z</time>
      </trkpt>
      <trkpt lat="43.59663" lon="5.50504">
        <ele>408.52734375</ele>
        <time>2014-03-23T18:41:21Z</time>
      </trkpt>
      <trkpt lat="43.59488" lon="5.50496">
        <ele>381.1953125</ele>
        <time>2014-03-23T18:41:21Z</time>
      </trkpt>
      <trkpt lat="43.59478" lon="5.50265">
        <ele>389.71484375</ele>
        <time>2014-03-23T18:41:21Z</time>
      </trkpt>
      <trkpt lat="43.59523" lon="5.5015">
        <ele>388.8984375</ele>
        <time>2014-03-23T18:41:21Z</time>
      </trkpt>
      <trkpt lat="43.59571" lon="5.50156">
        <ele>396.91015625</ele>
        <time>2014-03-23T18:41:21Z</time>
      </trkpt>
      <trkpt lat="43.59591" lon="5.50131">
        <ele>400.046875</ele>
        <time>2014-03-23T18:41:21Z</time>
      </trkpt>
      <trkpt lat="43.59622" lon="5.50091">
        <ele>404.41015625</ele>
        <time>2014-03-23T18:41:21Z</time>
      </trkpt>
      <trkpt lat="43.59685" lon="5.5009">
        <ele>408.3125</ele>
        <time>2014-03-23T18:41:21Z</time>
      </trkpt>
      <trkpt lat="43.59715" lon="5.5011">
        <ele>409.015625</ele>
        <time>2014-03-23T18:41:21Z</time>
      </trkpt>
      <trkpt lat="43.59775" lon="5.50143">
        <ele>407.6484375</ele>
        <time>2014-03-23T18:41:21Z</time>
      </trkpt>
      <trkpt lat="43.59732" lon="5.49867">
        <ele>396.7578125</ele>
        <time>2014-03-23T18:41:21Z</time>
      </trkpt>
      <trkpt lat="43.59758" lon="5.49714">
        <ele>396.5078125</ele>
        <time>2014-03-23T18:41:21Z</time>
      </trkpt>
      <trkpt lat="43.59791" lon="5.49637">
        <ele>389.99609375</ele>
        <time>2014-03-23T18:41:21Z</time>
      </trkpt>
      <trkpt lat="43.59806" lon="5.49431">
        <ele>385.875</ele>
        <time>2014-03-23T18:41:21Z</time>
      </trkpt>
      <trkpt lat="43.598" lon="5.49361">
        <ele>385.984375</ele>
        <time>2014-03-23T18:41:21Z</time>
      </trkpt>
      <trkpt lat="43.59742" lon="5.4923">
        <ele>391.69140625</ele>
        <time>2014-03-23T18:41:21Z</time>
      </trkpt>
      <trkpt lat="43.59679" lon="5.49211">
        <ele>398.296875</ele>
        <time>2014-03-23T18:41:21Z</time>
      </trkpt>
      <trkpt lat="43.59621" lon="5.49247">
        <ele>396.89453125</ele>
        <time>2014-03-23T18:41:21Z</time>
      </trkpt>
      <trkpt lat="43.59611" lon="5.49238">
        <ele>395.63671875</ele>
        <time>2014-03-23T18:41:21Z</time>
      </trkpt>
    </trkseg>
  </trk>
</gpx>